Total_Precipitation_Accumulation
2.04 2.31 2.67 3.03 3.25 3.42 3.54 3.84 4.05 3.80 3.35 2.97 2.52 2.34 2.28 2.06 1.87 1.79 1.64 1.75 1.67 1.85 2.07 1.82 2.07 1.82 1.83 1.96 2.00 2.18 2.16 1.97 1.92 2.27 2.37 1.86 1.46 1.49 1.39 1.35 1.56 1.58 1.64
1.63 1.75 1.92 2.24 2.39 2.61 2.91 3.24 3.46 3.30 2.77 2.57 2.40 2.28 2.23 2.06 2.01 1.93 1.93 1.73 1.69 1.79 1.72 2.03 1.87 1.88 2.02 2.07 2.14 2.26 2.26 2.02 1.95 2.33 2.70 2.33 2.24 1.95 1.22 1.27 1.44 1.53 1.77
1.36 1.42 1.46 1.58 1.90 2.44 2.63 2.52 2.74 2.92 2.65 2.55 2.48 2.38 2.32 2.12 2.17 2.11 2.02 1.70 1.58 1.59 1.68 1.72 1.74 1.96 1.77 2.10 2.34 2.30 2.37 2.34 2.14 2.18 2.59 2.62 2.53 2.11 1.62 1.28 1.27 1.48 1.85
0.94 1.08 1.10 1.21 1.40 1.70 2.00 2.27 2.54 2.69 2.59 2.45 2.23 2.08 1.89 1.82 1.84 1.85 1.84 1.72 1.64 1.53 1.57 1.60 1.77 1.95 1.75 2.21 1.91 2.06 2.26 2.41 2.22 2.13 2.01 2.08 2.28 2.40 2.21 1.76 1.38 1.40 1.57
0.54 0.72 0.84 0.96 1.00 1.20 1.60 2.06 2.45 2.71 2.56 2.24 2.06 2.07 1.93 1.88 1.81 1.75 1.97 1.84 1.74 1.60 1.47 1.64 1.80 1.85 1.75 1.93 2.04 2.34 2.21 2.15 2.12 2.15 2.19 2.25 2.18 1.97 2.13 2.12 1.89 1.69 1.32
0.38 0.51 0.60 0.74 0.85 1.00 1.27 1.63 1.97 2.22 2.23 2.08 1.99 2.03 2.07 2.06 1.91 1.73 1.75 1.62 1.61 1.56 1.49 1.61 1.80 1.76 1.73 1.87 1.95 2.12 2.11 2.17 2.24 2.08 2.00 2.17 2.12 2.00 2.05 1.86 1.75 1.73 1.28
0.37 0.49 0.55 0.66 0.73 0.78 0.97 1.27 1.48 1.65 1.85 1.96 1.95 1.91 2.04 2.08 1.89 1.68 1.65 1.63 1.48 1.43 1.47 1.59 1.84 1.78 1.84 1.89 2.06 2.10 2.06 2.11 2.15 2.01 1.86 1.82 1.72 1.81 1.92 2.02 1.76 1.59 1.22
0.33 0.45 0.54 0.60 0.61 0.63 0.81 0.99 1.18 1.40 1.65 1.81 1.88 1.87 1.82 1.70 1.65 1.75 1.66 1.63 1.59 1.53 1.48 1.59 1.63 1.67 1.76 1.83 2.24 2.04 1.94 2.01 1.98 1.79 2.00 1.89 1.58 1.64 1.77 1.99 2.19 1.97 1.62
0.42 0.48 0.62 0.69 0.60 0.62 0.77 0.84 1.02 1.21 1.37 1.61 1.76 1.71 1.71 1.59 1.58 1.64 1.58 1.52 1.65 1.64 1.57 1.52 1.54 1.63 1.79 1.97 2.16 2.06 2.09 2.16 1.96 1.87 2.03 1.88 1.66 1.62 1.58 1.84 2.21 2.46 2.20
0.54 0.63 0.66 0.70 0.66 0.66 0.78 0.87 1.00 1.11 1.17 1.32 1.41 1.34 1.54 1.59 1.70 1.67 1.57 1.49 1.50 1.55 1.60 1.63 1.62 1.71 1.81 2.00 2.17 2.16 2.29 2.35 2.16 2.06 2.05 1.92 1.75 1.84 1.67 1.71 2.00 2.24 2.39
0.62 0.67 0.66 0.69 0.65 0.68 0.73 0.77 0.92 1.04 1.09 1.23 1.30 1.35 1.45 1.53 1.60 1.60 1.59 1.58 1.58 1.61 1.62 1.69 1.73 1.75 1.81 1.99 2.14 2.04 2.27 2.37 2.38 2.18 2.10 2.03 2.02 2.03 1.85 1.88 1.99 2.05 2.27
0.48 0.63 0.70 0.76 0.59 0.64 0.71 0.74 0.81 0.89 0.97 1.17 1.34 1.42 1.56 1.60 1.53 1.52 1.70 1.75 1.73 1.73 1.72 1.79 1.90 1.88 1.90 2.02 2.01 1.89 1.99 2.15 2.31 2.51 2.61 2.37 2.30 2.27 2.10 2.07 2.01 2.03 2.21
0.48 0.61 0.75 0.68 0.59 0.62 0.70 0.74 0.82 0.91 0.98 1.11 1.28 1.50 1.57 1.63 1.69 1.81 1.96 2.05 1.99 1.96 1.98 2.04 2.00 2.02 2.06 2.05 1.97 1.98 2.01 2.10 2.18 2.41 2.61 2.60 2.69 2.44 2.39 2.28 2.17 2.11 2.06
0.46 0.52 0.71 0.74 0.66 0.64 0.69 0.75 0.87 1.00 1.17 1.39 1.52 1.62 1.80 1.91 1.96 1.93 2.04 2.07 2.11 2.15 2.15 2.19 2.14 2.11 2.14 2.14 2.12 2.09 2.08 2.16 2.14 2.18 2.27 2.39 2.65 2.62 2.62 2.43 2.41 2.42 2.39
0.53 0.66 0.79 0.93 0.92 0.85 0.79 0.84 1.06 1.26 1.48 1.74 1.82 1.84 1.90 2.00 2.12 2.26 2.29 2.29 2.29 2.25 2.39 2.37 2.27 2.26 2.28 2.11 2.22 2.41 2.38 2.45 2.27 2.19 2.15 2.13 2.35 2.42 2.43 2.20 2.31 2.50 2.53
0.67 0.81 0.95 1.06 1.17 1.20 1.19 1.23 1.37 1.63 1.91 2.20 2.33 2.44 2.50 2.55 2.61 2.64 2.66 2.71 2.67 2.61 2.53 2.41 2.43 2.42 2.21 2.35 2.41 2.32 2.36 2.54 2.54 2.42 2.35 2.21 2.14 2.12 2.16 2.20 2.25 2.35 2.34
0.84 0.95 1.05 1.12 1.25 1.31 1.39 1.56 1.73 1.95 2.17 2.34 2.45 2.59 2.70 2.82 2.92 2.93 2.92 2.80 2.74 2.66 2.53 2.53 2.57 2.52 2.55 2.51 2.28 2.13 2.14 2.20 2.29 2.36 2.34 2.07 1.92 2.10 2.02 2.18 2.20 2.06 1.98
0.98 1.01 1.07 1.17 1.24 1.38 1.55 1.72 1.81 1.96 2.27 2.45 2.52 2.59 2.64 2.74 2.89 3.05 2.98 2.82 2.75 2.69 2.64 2.59 2.48 2.41 2.33 2.33 2.10 2.08 1.98 1.93 1.87 1.97 2.08 2.03 1.93 1.96 2.03 1.98 1.78 1.63 1.62
0.97 1.03 1.14 1.23 1.34 1.40 1.46 1.49 1.58 1.75 1.98 2.20 2.36 2.35 2.48 2.69 2.79 2.83 2.84 2.88 2.82 2.63 2.48 2.36 2.30 2.25 2.30 2.46 2.21 2.09 1.91 1.91 1.77 1.75 1.75 1.79 1.69 1.79 1.86 1.77 1.58 1.45 1.41
0.98 1.09 1.23 1.29 1.29 1.30 1.32 1.40 1.55 1.77 1.98 2.19 2.37 2.51 2.61 2.75 2.81 2.86 2.96 2.96 2.90 2.85 2.80 2.64 2.49 2.39 2.36 2.51 2.25 2.08 1.90 1.91 1.86 1.85 1.84 1.93 1.71 1.62 1.54 1.48 1.48 1.31 1.24
0.97 1.06 1.22 1.35 1.35 1.36 1.50 1.63 1.76 1.93 2.11 2.22 2.30 2.41 2.55 2.71 2.93 3.13 3.08 3.03 2.96 2.85 2.65 2.46 2.32 2.27 2.27 2.25 2.03 1.89 1.69 1.69 1.74 1.64 1.58 1.63 1.65 1.44 1.28 1.26 1.25 1.17 1.21
0.86 1.04 1.18 1.31 1.45 1.58 1.73 1.86 1.89 1.96 2.12 2.30 2.37 2.42 2.56 2.60 2.69 2.83 2.80 2.75 2.74 2.71 2.64 2.58 2.49 2.39 2.25 2.04 1.80 1.65 1.54 1.56 1.57 1.66 1.67 1.72 1.75 1.48 1.32 1.18 1.06 1.09 1.06
0.94 1.05 1.17 1.30 1.40 1.58 1.77 1.92 2.02 2.10 2.19 2.28 2.40 2.54 2.60 2.62 2.71 2.84 2.85 2.76 2.66 2.58 2.47 2.39 2.21 2.18 2.21 2.12 1.87 1.61 1.51 1.51 1.46 1.65 1.95 1.96 1.90 1.68 1.40 1.28 1.27 1.17 1.03
1.15 1.18 1.26 1.33 1.41 1.51 1.68 1.87 2.01 2.06 2.17 2.24 2.29 2.42 2.55 2.65 2.78 2.79 2.67 2.53 2.35 2.25 2.19 2.10 1.99 1.97 2.02 1.92 1.84 1.71 1.62 1.59 1.53 1.60 1.85 2.00 2.01 1.89 1.69 1.59 1.49 1.26 1.16
1.22 1.25 1.32 1.39 1.44 1.51 1.58 1.80 2.01 2.07 2.09 2.19 2.24 2.22 2.26 2.34 2.45 2.50 2.44 2.30 2.16 2.05 1.98 1.87 1.85 1.84 1.83 1.85 1.85 1.69 1.57 1.54 1.59 1.72 1.93 2.07 2.17 2.17 2.09 1.98 1.87 1.72 1.55
1.31 1.32 1.34 1.38 1.42 1.52 1.63 1.71 1.95 2.18 2.24 2.21 2.09 2.01 1.93 1.92 1.95 1.94 1.99 2.11 1.99 1.97 1.84 1.73 1.66 1.61 1.66 1.68 1.63 1.53 1.45 1.50 1.63 1.69 1.80 2.03 2.21 2.28 2.35 2.37 2.25 2.02 1.83